Time,TemperatureF,DewpointF,PressureIn,WindDirection,WindDirectionDegrees,WindSpeedMPH,WindSpeedGustMPH,Humidity,HourlyPrecipIn,Conditions,Clouds,dailyrainin,SoftwareType,DateUTC
2013-11-04 00:01:00,27.0,20.4,30.56,WNW,289,0.0,15.0,76,0.00,,,0.00,Wunderground v.1.15,2013-11-04 05:01:00,
2013-11-04 00:02:00,27.0,20.4,30.56,WNW,289,0.0,15.0,76,0.00,,,0.00,Wunderground v.1.15,2013-11-04 05:02:00,
2013-11-04 00:03:00,27.0,20.4,30.56,WNW,289,0.0,15.0,76,0.00,,,0.00,Wunderground v.1.15,2013-11-04 05:03:00,
2013-11-04 00:05:00,26.9,20.3,30.56,WNW,289,0.0,15.0,76,0.00,,,0.00,Wunderground v.1.15,2013-11-04 05:05:00,
2013-11-04 00:06:00,26.9,20.3,30.56,WNW,289,0.0,15.0,76,0.00,,,0.00,Wunderground v.1.15,2013-11-04 05:06:00,
2013-11-04 00:11:00,26.9,20.3,30.57,WNW,289,0.0,15.0,76,0.00,,,0.00,Wunderground v.1.15,2013-11-04 05:11:00,
2013-11-04 00:17:00,26.7,20.1,30.57,WNW,289,0.0,15.0,76,0.00,,,0.00,Wunderground v.1.15,2013-11-04 05:17:00,
2013-11-04 00:23:00,26.6,20.1,30.57,WNW,289,0.0,15.0,76,0.00,,,0.00,Wunderground v.1.15,2013-11-04 05:23:00,
2013-11-04 00:26:00,26.5,20.0,30.57,WNW,289,0.0,15.0,76,0.00,,,0.00,Wunderground v.1.15,2013-11-04 05:26:00,
2013-11-04 00:31:00,26.4,19.9,30.58,WNW,289,0.0,15.0,76,0.00,,,0.00,Wunderground v.1.15,2013-11-04 05:31:00,
2013-11-04 00:37:00,26.3,19.8,30.58,WNW,289,0.0,15.0,76,0.00,,,0.00,Wunderground v.1.15,2013-11-04 05:37:00,
2013-11-04 00:43:00,26.1,19.6,30.59,WNW,289,0.0,15.0,76,0.00,,,0.00,Wunderground v.1.15,2013-11-04 05:43:00,
2013-11-04 00:49:00,26.2,20.0,30.59,WNW,289,0.0,15.0,77,0.00,,,0.00,Wunderground v.1.15,2013-11-04 05:49:00,
2013-11-04 00:55:00,26.1,19.6,30.60,WNW,289,0.0,15.0,76,0.00,,,0.00,Wunderground v.1.15,2013-11-04 05:55:00,
2013-11-04 01:00:00,26.2,19.7,30.60,WNW,289,0.0,6.0,76,0.00,,,0.00,Wunderground v.1.15,2013-11-04 06:00:00,
2013-11-04 01:06:00,26.1,19.6,30.60,WNW,289,0.0,6.0,76,0.00,,,0.00,Wunderground v.1.15,2013-11-04 06:06:00,
2013-11-04 01:11:00,25.9,19.4,30.60,WNW,289,0.0,6.0,76,0.00,,,0.00,Wunderground v.1.15,2013-11-04 06:11:00,
2013-11-04 01:17:00,25.6,19.4,30.60,WNW,289,0.0,6.0,77,0.00,,,0.00,Wunderground v.1.15,2013-11-04 06:17:00,
2013-11-04 01:23:00,25.3,19.4,30.60,WNW,289,0.0,6.0,78,0.00,,,0.00,Wunderground v.1.15,2013-11-04 06:23:00,
2013-11-04 01:29:00,25.0,19.4,30.61,WNW,289,0.0,6.0,79,0.00,,,0.00,Wunderground v.1.15,2013-11-04 06:29:00,
2013-11-04 01:35:00,24.9,19.3,30.61,WNW,289,0.0,6.0,79,0.00,,,0.00,Wunderground v.1.15,2013-11-04 06:35:00,
2013-11-04 01:41:00,24.8,19.2,30.61,WNW,289,0.0,6.0,79,0.00,,,0.00,Wunderground v.1.15,2013-11-04 06:41:00,
2013-11-04 01:47:00,24.8,19.2,30.61,WNW,289,0.0,6.0,79,0.00,,,0.00,Wunderground v.1.15,2013-11-04 06:47:00,
2013-11-04 01:53:00,24.9,19.3,30.61,WNW,289,0.0,6.0,79,0.00,,,0.00,Wunderground v.1.15,2013-11-04 06:53:00,
2013-11-04 01:59:00,25.1,18.9,30.61,WNW,289,0.0,6.0,77,0.00,,,0.00,Wunderground v.1.15,2013-11-04 06:59:00,
2013-11-04 02:05:00,25.2,19.0,30.61,WNW,289,0.0,6.0,77,0.00,,,0.00,Wunderground v.1.15,2013-11-04 07:05:00,
2013-11-04 02:11:00,25.1,18.9,30.61,WNW,289,0.0,6.0,77,0.00,,,0.00,Wunderground v.1.15,2013-11-04 07:11:00,
2013-11-04 02:16:00,25.2,19.0,30.61,WNW,289,0.0,6.0,77,0.00,,,0.00,Wunderground v.1.15,2013-11-04 07:16:00,
2013-11-04 02:22:00,24.9,19.0,30.61,WNW,289,0.0,6.0,78,0.00,,,0.00,Wunderground v.1.15,2013-11-04 07:22:00,
2013-11-04 02:27:00,24.7,18.5,30.61,WNW,289,0.0,6.0,77,0.00,,,0.00,Wunderground v.1.15,2013-11-04 07:27:00,
2013-11-04 02:33:00,24.6,18.7,30.61,WNW,289,0.0,6.0,78,0.00,,,0.00,Wunderground v.1.15,2013-11-04 07:33:00,
2013-11-04 02:39:00,24.4,18.5,30.61,WNW,289,0.0,6.0,78,0.00,,,0.00,Wunderground v.1.15,2013-11-04 07:39:00,
2013-11-04 02:45:00,24.1,18.5,30.62,WNW,289,0.0,6.0,79,0.00,,,0.00,Wunderground v.1.15,2013-11-04 07:45:00,
2013-11-04 02:51:00,23.9,18.6,30.62,WNW,289,0.0,6.0,80,0.00,,,0.00,Wunderground v.1.15,2013-11-04 07:51:00,
2013-11-04 02:57:00,23.6,18.3,30.62,WNW,289,0.0,6.0,80,0.00,,,0.00,Wunderground v.1.15,2013-11-04 07:57:00,
2013-11-04 03:03:00,23.3,18.3,30.62,WNW,289,0.0,6.0,81,0.00,,,0.00,Wunderground v.1.15,2013-11-04 08:03:00,
2013-11-04 03:09:00,23.0,18.3,30.63,WNW,289,0.0,6.0,82,0.00,,,0.00,Wunderground v.1.15,2013-11-04 08:09:00,
2013-11-04 03:15:00,22.5,17.8,30.63,WNW,289,0.0,6.0,82,0.00,,,0.00,Wunderground v.1.15,2013-11-04 08:15:00,
2013-11-04 03:21:00,22.0,17.6,30.63,WNW,289,0.0,6.0,83,0.00,,,0.00,Wunderground v.1.15,2013-11-04 08:21:00,
2013-11-04 03:27:00,21.7,17.9,30.63,WNW,289,0.0,6.0,85,0.00,,,0.00,Wunderground v.1.15,2013-11-04 08:27:00,
2013-11-04 03:33:00,21.6,17.8,30.63,WNW,289,0.0,6.0,85,0.00,,,0.00,Wunderground v.1.15,2013-11-04 08:33:00,
2013-11-04 03:38:00,21.5,17.7,30.63,WNW,289,0.0,6.0,85,0.00,,,0.00,Wunderground v.1.15,2013-11-04 08:38:00,
2013-11-04 03:44:00,21.5,18.0,30.64,WNW,289,0.0,6.0,86,0.00,,,0.00,Wunderground v.1.15,2013-11-04 08:44:00,
2013-11-04 03:50:00,21.3,17.8,30.64,WNW,289,0.0,6.0,86,0.00,,,0.00,Wunderground v.1.15,2013-11-04 08:50:00,
2013-11-04 03:56:00,21.1,17.6,30.64,WNW,289,0.0,6.0,86,0.00,,,0.00,Wunderground v.1.15,2013-11-04 08:56:00,
2013-11-04 04:02:00,21.0,17.5,30.65,WNW,289,0.0,6.0,86,0.00,,,0.00,Wunderground v.1.15,2013-11-04 09:02:00,
2013-11-04 04:08:00,20.9,17.6,30.64,WNW,289,0.0,6.0,87,0.00,,,0.00,Wunderground v.1.15,2013-11-04 09:08:00,
2013-11-04 04:14:00,20.8,17.5,30.65,WNW,289,0.0,6.0,87,0.00,,,0.00,Wunderground v.1.15,2013-11-04 09:14:00,
2013-11-04 04:20:00,20.7,17.7,30.65,WNW,289,0.0,6.0,88,0.00,,,0.00,Wunderground v.1.15,2013-11-04 09:20:00,
2013-11-04 04:26:00,20.6,17.6,30.65,WNW,289,0.0,6.0,88,0.00,,,0.00,Wunderground v.1.15,2013-11-04 09:26:00,
2013-11-04 04:32:00,20.5,17.5,30.66,WNW,289,0.0,6.0,88,0.00,,,0.00,Wunderground v.1.15,2013-11-04 09:32:00,
2013-11-04 04:38:00,20.4,17.4,30.67,WNW,289,0.0,6.0,88,0.00,,,0.00,Wunderground v.1.15,2013-11-04 09:38:00,
2013-11-04 04:44:00,20.2,17.2,30.67,WNW,289,0.0,6.0,88,0.00,,,0.00,Wunderground v.1.15,2013-11-04 09:44:00,
2013-11-04 04:50:00,20.1,17.1,30.67,WNW,289,0.0,6.0,88,0.00,,,0.00,Wunderground v.1.15,2013-11-04 09:50:00,
2013-11-04 04:56:00,19.7,16.7,30.68,WNW,289,0.0,6.0,88,0.00,,,0.00,Wunderground v.1.15,2013-11-04 09:56:00,
2013-11-04 05:01:00,19.4,16.4,30.68,WNW,289,0.0,6.0,88,0.00,,,0.00,Wunderground v.1.15,2013-11-04 10:01:00,
2013-11-04 05:07:00,19.1,16.1,30.68,WNW,289,0.0,6.0,88,0.00,,,0.00,Wunderground v.1.15,2013-11-04 10:07:00,
2013-11-04 05:13:00,19.1,16.4,30.68,WNW,289,0.0,6.0,89,0.00,,,0.00,Wunderground v.1.15,2013-11-04 10:13:00,
2013-11-04 05:19:00,19.1,16.7,30.68,WNW,289,0.0,6.0,90,0.00,,,0.00,Wunderground v.1.15,2013-11-04 10:19:00,
2013-11-04 05:25:00,19.3,16.8,30.68,WNW,289,0.0,6.0,90,0.00,,,0.00,Wunderground v.1.15,2013-11-04 10:25:00,
2013-11-04 05:31:00,19.3,16.8,30.69,WNW,289,0.0,6.0,90,0.00,,,0.00,Wunderground v.1.15,2013-11-04 10:31:00,
2013-11-04 05:37:00,19.3,16.8,30.69,WNW,289,0.0,6.0,90,0.00,,,0.00,Wunderground v.1.15,2013-11-04 10:37:00,
2013-11-04 05:43:00,19.2,16.5,30.69,WNW,289,0.0,6.0,89,0.00,,,0.00,Wunderground v.1.15,2013-11-04 10:43:00,
2013-11-04 05:49:00,19.0,16.6,30.69,WNW,289,0.0,6.0,90,0.00,,,0.00,Wunderground v.1.15,2013-11-04 10:49:00,
2013-11-04 05:55:00,18.9,16.5,30.69,WNW,289,0.0,6.0,90,0.00,,,0.00,Wunderground v.1.15,2013-11-04 10:55:00,
2013-11-04 06:01:00,18.8,16.4,30.70,WNW,289,0.0,6.0,90,0.00,,,0.00,Wunderground v.1.15,2013-11-04 11:01:00,
2013-11-04 06:07:00,18.8,16.4,30.71,WNW,289,0.0,6.0,90,0.00,,,0.00,Wunderground v.1.15,2013-11-04 11:07:00,
2013-11-04 06:12:00,18.7,16.3,30.71,WNW,289,0.0,6.0,90,0.00,,,0.00,Wunderground v.1.15,2013-11-04 11:12:00,
2013-11-04 06:17:00,18.6,16.2,30.70,WNW,289,0.0,6.0,90,0.00,,,0.00,Wunderground v.1.15,2013-11-04 11:17:00,
2013-11-04 06:22:00,18.5,16.1,30.71,WNW,289,0.0,6.0,90,0.00,,,0.00,Wunderground v.1.15,2013-11-04 11:22:00,
2013-11-04 06:27:00,18.4,16.0,30.71,WNW,289,0.0,6.0,90,0.00,,,0.00,Wunderground v.1.15,2013-11-04 11:27:00,
2013-11-04 06:33:00,18.5,16.3,30.71,WNW,289,0.0,6.0,91,0.00,,,0.00,Wunderground v.1.15,2013-11-04 11:33:00,
2013-11-04 06:38:00,18.4,16.0,30.72,WNW,289,0.0,6.0,90,0.00,,,0.00,Wunderground v.1.15,2013-11-04 11:38:00,
2013-11-04 06:44:00,18.7,16.5,30.71,WNW,289,0.0,6.0,91,0.00,,,0.00,Wunderground v.1.15,2013-11-04 11:44:00,
2013-11-04 06:49:00,19.0,16.8,30.71,WNW,289,0.0,6.0,91,0.00,,,0.00,Wunderground v.1.15,2013-11-04 11:49:00,
2013-11-04 06:55:00,19.1,16.7,30.72,WNW,289,0.0,6.0,90,0.00,,,0.00,Wunderground v.1.15,2013-11-04 11:55:00,
2013-11-04 07:01:00,18.8,16.4,30.71,WNW,289,0.0,6.0,90,0.00,,,0.00,Wunderground v.1.15,2013-11-04 12:01:00,
2013-11-04 07:07:00,18.5,15.8,30.72,WNW,289,0.0,6.0,89,0.00,,,0.00,Wunderground v.1.15,2013-11-04 12:07:00,
2013-11-04 07:12:00,18.4,16.0,30.72,WNW,289,0.0,6.0,90,0.00,,,0.00,Wunderground v.1.15,2013-11-04 12:12:00,
2013-11-04 07:18:00,18.6,16.2,30.72,WNW,289,0.0,6.0,90,0.00,,,0.00,Wunderground v.1.15,2013-11-04 12:18:00,
2013-11-04 07:24:00,18.9,16.7,30.73,WNW,289,0.0,6.0,91,0.00,,,0.00,Wunderground v.1.15,2013-11-04 12:24:00,
2013-11-04 07:30:00,19.4,17.2,30.73,WNW,289,0.0,6.0,91,0.00,,,0.00,Wunderground v.1.15,2013-11-04 12:30:00,
2013-11-04 07:36:00,20.0,18.1,30.74,WNW,289,0.0,6.0,92,0.00,,,0.00,Wunderground v.1.15,2013-11-04 12:36:00,
2013-11-04 07:42:00,20.7,18.5,30.74,WNW,289,0.0,6.0,91,0.00,,,0.00,Wunderground v.1.15,2013-11-04 12:42:00,
2013-11-04 07:48:00,21.6,19.4,30.74,WNW,289,0.0,6.0,91,0.00,,,0.00,Wunderground v.1.15,2013-11-04 12:48:00,
2013-11-04 07:54:00,22.4,19.9,30.74,WNW,289,0.0,6.0,90,0.00,,,0.00,Wunderground v.1.15,2013-11-04 12:54:00,
2013-11-04 08:00:00,22.8,19.8,30.74,WNW,289,0.0,6.0,88,0.00,,,0.00,Wunderground v.1.15,2013-11-04 13:00:00,
2013-11-04 08:06:00,23.5,20.5,30.75,WNW,289,0.0,6.0,88,0.00,,,0.00,Wunderground v.1.15,2013-11-04 13:06:00,
2013-11-04 08:12:00,24.2,20.9,30.74,WNW,289,0.0,6.0,87,0.00,,,0.00,Wunderground v.1.15,2013-11-04 13:12:00,
2013-11-04 08:18:00,24.7,21.1,30.74,WNW,289,0.0,6.0,86,0.00,,,0.00,Wunderground v.1.15,2013-11-04 13:18:00,
2013-11-04 08:24:00,25.2,21.3,30.74,WNW,289,0.0,6.0,85,0.00,,,0.00,Wunderground v.1.15,2013-11-04 13:24:00,
2013-11-04 08:30:00,25.7,21.8,30.75,WNW,289,0.0,6.0,85,0.00,,,0.00,Wunderground v.1.15,2013-11-04 13:30:00,
2013-11-04 08:35:00,25.7,21.3,30.75,WNW,289,1.0,6.0,83,0.00,,,0.00,Wunderground v.1.15,2013-11-04 13:35:00,
2013-11-04 08:41:00,25.8,21.3,30.75,WNW,289,2.0,6.0,83,0.00,,,0.00,Wunderground v.1.15,2013-11-04 13:41:00,
2013-11-04 08:47:00,26.5,22.3,30.75,WNW,289,1.0,6.0,84,0.00,,,0.00,Wunderground v.1.15,2013-11-04 13:47:00,
2013-11-04 08:53:00,26.9,21.8,30.75,WNW,289,2.0,6.0,81,0.00,,,0.00,Wunderground v.1.15,2013-11-04 13:53:00,
2013-11-04 08:59:00,27.6,22.5,30.75,WNW,289,2.0,6.0,81,0.00,,,0.00,Wunderground v.1.15,2013-11-04 13:59:00,
2013-11-04 09:05:00,28.7,23.0,30.75,WNW,289,1.0,6.0,79,0.00,,,0.00,Wunderground v.1.15,2013-11-04 14:05:00,
2013-11-04 09:11:00,29.8,22.8,30.75,WNW,289,0.0,6.0,75,0.00,,,0.00,Wunderground v.1.15,2013-11-04 14:11:00,
2013-11-04 09:17:00,30.9,21.9,30.75,SSE,152,2.0,10.0,69,0.00,,,0.00,Wunderground v.1.15,2013-11-04 14:17:00,
2013-11-04 09:23:00,31.5,19.6,30.75,ESE,109,6.0,10.0,61,0.00,,,0.00,Wunderground v.1.15,2013-11-04 14:23:00,
2013-11-04 09:29:00,31.9,19.6,30.74,ENE,66,7.0,14.0,60,0.00,,,0.00,Wunderground v.1.15,2013-11-04 14:29:00,
2013-11-04 09:35:00,32.3,19.2,30.74,ENE,78,6.0,11.0,58,0.00,,,0.00,Wunderground v.1.15,2013-11-04 14:35:00,
2013-11-04 09:41:00,32.5,18.5,30.75,East,94,7.0,7.0,56,0.00,,,0.00,Wunderground v.1.15,2013-11-04 14:41:00,
2013-11-04 09:47:00,32.7,18.7,30.75,ESE,102,7.0,8.0,56,0.00,,,0.00,Wunderground v.1.15,2013-11-04 14:47:00,
2013-11-04 09:53:00,32.9,19.3,30.75,ESE,113,6.0,11.0,57,0.00,,,0.00,Wunderground v.1.15,2013-11-04 14:53:00,
2013-11-04 09:59:00,32.8,18.4,30.75,SE,143,7.0,11.0,55,0.00,,,0.00,Wunderground v.1.15,2013-11-04 14:59:00,
2013-11-04 10:05:00,33.0,18.6,30.75,ESE,104,7.0,11.0,55,0.00,,,0.00,Wunderground v.1.15,2013-11-04 15:05:00,
2013-11-04 10:11:00,33.3,18.9,30.75,SE,129,7.0,8.0,55,0.00,,,0.00,Wunderground v.1.15,2013-11-04 15:11:00,
2013-11-04 10:16:00,33.0,18.6,30.75,ENE,73,8.0,13.0,55,0.00,,,0.00,Wunderground v.1.15,2013-11-04 15:16:00,
2013-11-04 10:22:00,33.4,18.9,30.75,East,92,6.0,8.0,55,0.00,,,0.00,Wunderground v.1.15,2013-11-04 15:22:00,
2013-11-04 10:28:00,33.7,18.8,30.75,ESE,103,6.0,11.0,54,0.00,,,0.00,Wunderground v.1.15,2013-11-04 15:28:00,
2013-11-04 10:34:00,33.8,18.0,30.75,SE,126,7.0,8.0,52,0.00,,,0.00,Wunderground v.1.15,2013-11-04 15:34:00,
2013-11-04 10:40:00,33.6,18.7,30.75,East,86,6.0,6.0,54,0.00,,,0.00,Wunderground v.1.15,2013-11-04 15:40:00,
2013-11-04 10:46:00,33.8,18.0,30.75,SSE,162,6.0,10.0,52,0.00,,,0.00,Wunderground v.1.15,2013-11-04 15:46:00,
2013-11-04 10:52:00,34.2,19.3,30.75,East,88,6.0,6.0,54,0.00,,,0.00,Wunderground v.1.15,2013-11-04 15:52:00,
2013-11-04 10:58:00,34.6,18.8,30.75,SSE,148,4.0,7.0,52,0.00,,,0.00,Wunderground v.1.15,2013-11-04 15:58:00,
2013-11-04 11:04:00,34.4,18.6,30.74,ENE,73,4.0,6.0,52,0.00,,,0.00,Wunderground v.1.15,2013-11-04 16:04:00,
2013-11-04 11:10:00,34.9,19.0,30.74,ENE,66,5.0,9.0,52,0.00,,,0.00,Wunderground v.1.15,2013-11-04 16:10:00,
2013-11-04 11:16:00,35.2,18.9,30.74,ESE,103,6.0,9.0,51,0.00,,,0.00,Wunderground v.1.15,2013-11-04 16:16:00,
2013-11-04 11:22:00,35.3,18.5,30.73,ENE,62,5.0,10.0,50,0.00,,,0.00,Wunderground v.1.15,2013-11-04 16:22:00,
2013-11-04 11:28:00,35.5,18.2,30.73,ENE,58,6.0,10.0,49,0.00,,,0.00,Wunderground v.1.15,2013-11-04 16:28:00,
2013-11-04 11:33:00,35.3,18.5,30.73,East,79,6.0,8.0,50,0.00,,,0.00,Wunderground v.1.15,2013-11-04 16:33:00,
2013-11-04 11:39:00,35.7,18.9,30.73,ESE,123,3.0,8.0,50,0.00,,,0.00,Wunderground v.1.15,2013-11-04 16:39:00,
2013-11-04 11:45:00,35.8,18.0,30.73,ESE,105,4.0,8.0,48,0.00,,,0.00,Wunderground v.1.15,2013-11-04 16:45:00,
2013-11-04 11:51:00,36.1,19.2,30.73,ENE,63,4.0,8.0,50,0.00,,,0.00,Wunderground v.1.15,2013-11-04 16:51:00,
2013-11-04 11:57:00,36.2,19.3,30.72,NE,44,4.0,8.0,50,0.00,,,0.00,Wunderground v.1.15,2013-11-04 16:57:00,
2013-11-04 12:03:00,36.2,17.9,30.72,East,88,4.0,8.0,47,0.00,,,0.00,Wunderground v.1.15,2013-11-04 17:03:00,
2013-11-04 12:09:00,36.2,18.4,30.73,ESE,104,5.0,8.0,48,0.00,,,0.00,Wunderground v.1.15,2013-11-04 17:09:00,
2013-11-04 12:15:00,36.3,18.5,30.73,ENE,66,2.0,6.0,48,0.00,,,0.00,Wunderground v.1.15,2013-11-04 17:15:00,
2013-11-04 12:21:00,36.8,18.4,30.73,ESE,119,2.0,6.0,47,0.00,,,0.00,Wunderground v.1.15,2013-11-04 17:21:00,
2013-11-04 12:27:00,37.4,19.5,30.72,ESE,106,2.0,6.0,48,0.00,,,0.00,Wunderground v.1.15,2013-11-04 17:27:00,
2013-11-04 12:33:00,38.0,17.5,30.72,NE,38,2.0,6.0,43,0.00,,,0.00,Wunderground v.1.15,2013-11-04 17:33:00,
2013-11-04 12:39:00,38.0,17.5,30.72,ESE,107,3.0,9.0,43,0.00,,,0.00,Wunderground v.1.15,2013-11-04 17:39:00,
2013-11-04 12:45:00,37.7,16.6,30.71,ENE,71,5.0,10.0,42,0.00,,,0.00,Wunderground v.1.15,2013-11-04 17:45:00,
2013-11-04 12:51:00,37.8,17.8,30.71,East,96,5.0,6.0,44,0.00,,,0.00,Wunderground v.1.15,2013-11-04 17:51:00,
2013-11-04 12:56:00,37.8,17.3,30.71,East,84,4.0,7.0,43,0.00,,,0.00,Wunderground v.1.15,2013-11-04 17:56:00,
2013-11-04 13:02:00,37.7,17.7,30.71,East,92,3.0,6.0,44,0.00,,,0.00,Wunderground v.1.15,2013-11-04 18:02:00,
2013-11-04 13:08:00,38.2,17.6,30.71,ENE,72,1.0,6.0,43,0.00,,,0.00,Wunderground v.1.15,2013-11-04 18:08:00,
2013-11-04 13:14:00,38.7,17.5,30.71,ENE,76,2.0,6.0,42,0.00,,,0.00,Wunderground v.1.15,2013-11-04 18:14:00,
2013-11-04 13:20:00,38.4,17.3,30.71,ESE,103,3.0,3.0,42,0.00,,,0.00,Wunderground v.1.15,2013-11-04 18:20:00,
2013-11-04 13:26:00,38.8,17.1,30.70,East,84,1.0,6.0,41,0.00,,,0.00,Wunderground v.1.15,2013-11-04 18:26:00,
2013-11-04 13:32:00,39.1,16.8,30.71,ESE,123,1.0,6.0,40,0.00,,,0.00,Wunderground v.1.15,2013-11-04 18:32:00,
2013-11-04 13:38:00,38.8,15.9,30.71,ESE,109,2.0,6.0,39,0.00,,,0.00,Wunderground v.1.15,2013-11-04 18:38:00,
2013-11-04 13:44:00,39.0,17.3,30.70,ENE,70,1.0,6.0,41,0.00,,,0.00,Wunderground v.1.15,2013-11-04 18:44:00,
2013-11-04 13:50:00,39.5,17.7,30.70,ENE,72,0.0,6.0,41,0.00,,,0.00,Wunderground v.1.15,2013-11-04 18:50:00,
2013-11-04 13:56:00,40.5,18.0,30.70,NNE,29,0.0,6.0,40,0.00,,,0.00,Wunderground v.1.15,2013-11-04 18:56:00,
2013-11-04 14:02:00,40.1,17.7,30.70,East,86,2.0,6.0,40,0.00,,,0.00,Wunderground v.1.15,2013-11-04 19:02:00,
2013-11-04 14:08:00,39.4,17.0,30.70,ENE,67,2.0,6.0,40,0.00,,,0.00,Wunderground v.1.15,2013-11-04 19:08:00,
2013-11-04 14:13:00,39.2,17.4,30.71,NE,54,2.0,6.0,41,0.00,,,0.00,Wunderground v.1.15,2013-11-04 19:13:00,
2013-11-04 14:19:00,39.4,17.0,30.70,ENE,71,1.0,6.0,40,0.00,,,0.00,Wunderground v.1.15,2013-11-04 19:19:00,
2013-11-04 14:25:00,40.0,17.6,30.71,ENE,74,1.0,6.0,40,0.00,,,0.00,Wunderground v.1.15,2013-11-04 19:25:00,
2013-11-04 14:31:00,40.2,17.8,30.70,ENE,74,1.0,6.0,40,0.00,,,0.00,Wunderground v.1.15,2013-11-04 19:31:00,
2013-11-04 14:37:00,40.8,18.3,30.70,ENE,68,0.0,6.0,40,0.00,,,0.00,Wunderground v.1.15,2013-11-04 19:37:00,
2013-11-04 14:43:00,41.2,18.1,30.70,East,89,0.0,6.0,39,0.00,,,0.00,Wunderground v.1.15,2013-11-04 19:43:00,
2013-11-04 14:49:00,40.8,17.7,30.69,NNE,17,1.0,6.0,39,0.00,,,0.00,Wunderground v.1.15,2013-11-04 19:49:00,
2013-11-04 14:55:00,40.6,18.1,30.70,NNE,22,1.0,6.0,40,0.00,,,0.00,Wunderground v.1.15,2013-11-04 19:55:00,
2013-11-04 15:01:00,41.2,18.7,30.70,NE,35,0.0,6.0,40,0.00,,,0.00,Wunderground v.1.15,2013-11-04 20:01:00,
2013-11-04 15:07:00,40.5,16.9,30.70,East,96,2.0,6.0,38,0.00,,,0.00,Wunderground v.1.15,2013-11-04 20:07:00,
2013-11-04 15:13:00,39.9,18.1,30.69,East,96,2.0,6.0,41,0.00,,,0.00,Wunderground v.1.15,2013-11-04 20:13:00,
2013-11-04 15:19:00,39.7,16.7,30.69,ESE,117,2.0,6.0,39,0.00,,,0.00,Wunderground v.1.15,2013-11-04 20:19:00,
2013-11-04 15:25:00,39.1,16.8,30.69,ESE,114,3.0,6.0,40,0.00,,,0.00,Wunderground v.1.15,2013-11-04 20:25:00,
2013-11-04 15:31:00,38.5,17.4,30.69,ESE,115,3.0,6.0,42,0.00,,,0.00,Wunderground v.1.15,2013-11-04 20:31:00,
2013-11-04 15:36:00,38.2,17.6,30.69,SE,126,2.0,6.0,43,0.00,,,0.00,Wunderground v.1.15,2013-11-04 20:36:00,
2013-11-04 15:42:00,37.9,17.9,30.70,SE,130,1.0,6.0,44,0.00,,,0.00,Wunderground v.1.15,2013-11-04 20:42:00,
2013-11-04 15:48:00,37.7,17.7,30.69,SSE,148,2.0,6.0,44,0.00,,,0.00,Wunderground v.1.15,2013-11-04 20:48:00,
2013-11-04 15:54:00,37.8,18.3,30.69,SE,128,3.0,6.0,45,0.00,,,0.00,Wunderground v.1.15,2013-11-04 20:54:00,
2013-11-04 16:00:00,37.8,17.8,30.69,SE,140,4.0,6.0,44,0.00,,,0.00,Wunderground v.1.15,2013-11-04 21:00:00,
2013-11-04 16:06:00,37.9,18.4,30.69,East,99,3.0,6.0,45,0.00,,,0.00,Wunderground v.1.15,2013-11-04 21:06:00,
2013-11-04 16:12:00,37.8,18.3,30.70,SE,130,3.0,7.0,45,0.00,,,0.00,Wunderground v.1.15,2013-11-04 21:12:00,
2013-11-04 16:18:00,37.5,18.1,30.70,SE,140,3.0,7.0,45,0.00,,,0.00,Wunderground v.1.15,2013-11-04 21:18:00,
2013-11-04 16:24:00,37.4,18.5,30.71,SE,131,1.0,6.0,46,0.00,,,0.00,Wunderground v.1.15,2013-11-04 21:24:00,
2013-11-04 16:30:00,37.1,18.2,30.71,SE,137,1.0,1.0,46,0.00,,,0.00,Wunderground v.1.15,2013-11-04 21:30:00,
2013-11-04 16:35:00,36.7,18.8,30.71,SE,137,1.0,6.0,48,0.00,,,0.00,Wunderground v.1.15,2013-11-04 21:35:00,
2013-11-04 16:41:00,36.2,19.3,30.71,SE,137,0.0,6.0,50,0.00,,,0.00,Wunderground v.1.15,2013-11-04 21:41:00,
2013-11-04 16:47:00,35.6,19.2,30.71,SE,137,0.0,6.0,51,0.00,,,0.00,Wunderground v.1.15,2013-11-04 21:47:00,
2013-11-04 16:53:00,35.0,19.1,30.71,SE,137,0.0,6.0,52,0.00,,,0.00,Wunderground v.1.15,2013-11-04 21:53:00,
2013-11-04 16:58:00,34.5,19.1,30.72,SE,137,0.0,6.0,53,0.00,,,0.00,Wunderground v.1.15,2013-11-04 21:58:00,
2013-11-04 17:04:00,34.0,18.6,30.72,SE,137,0.0,6.0,53,0.00,,,0.00,Wunderground v.1.15,2013-11-04 22:04:00,
2013-11-04 17:10:00,33.6,19.1,30.72,SE,137,0.0,6.0,55,0.00,,,0.00,Wunderground v.1.15,2013-11-04 22:10:00,
2013-11-04 17:16:00,33.2,18.3,30.72,SE,137,0.0,6.0,54,0.00,,,0.00,Wunderground v.1.15,2013-11-04 22:16:00,
2013-11-04 17:22:00,32.8,18.8,30.72,SE,137,0.0,6.0,56,0.00,,,0.00,Wunderground v.1.15,2013-11-04 22:22:00,
2013-11-04 17:28:00,32.2,19.1,30.72,SE,137,0.0,6.0,58,0.00,,,0.00,Wunderground v.1.15,2013-11-04 22:28:00,
2013-11-04 17:34:00,31.7,19.8,30.72,SE,137,0.0,6.0,61,0.00,,,0.00,Wunderground v.1.15,2013-11-04 22:34:00,
2013-11-04 17:40:00,31.2,20.1,30.72,SE,137,0.0,6.0,63,0.00,,,0.00,Wunderground v.1.15,2013-11-04 22:40:00,
2013-11-04 17:46:00,30.7,19.6,30.72,SE,137,0.0,6.0,63,0.00,,,0.00,Wunderground v.1.15,2013-11-04 22:46:00,
2013-11-04 17:52:00,30.6,19.5,30.73,SE,137,0.0,6.0,63,0.00,,,0.00,Wunderground v.1.15,2013-11-04 22:52:00,
2013-11-04 17:58:00,30.5,19.4,30.73,SE,137,0.0,6.0,63,0.00,,,0.00,Wunderground v.1.15,2013-11-04 22:58:00,
2013-11-04 18:04:00,30.4,19.7,30.73,SE,137,0.0,6.0,64,0.00,,,0.00,Wunderground v.1.15,2013-11-04 23:04:00,
2013-11-04 18:10:00,30.0,19.7,30.73,SE,137,0.0,6.0,65,0.00,,,0.00,Wunderground v.1.15,2013-11-04 23:10:00,
2013-11-04 18:15:00,29.7,19.7,30.72,SE,137,0.0,6.0,66,0.00,,,0.00,Wunderground v.1.15,2013-11-04 23:15:00,
2013-11-04 18:21:00,29.3,20.0,30.73,SE,137,0.0,6.0,68,0.00,,,0.00,Wunderground v.1.15,2013-11-04 23:21:00,
2013-11-04 18:27:00,29.0,19.8,30.72,SE,137,0.0,6.0,68,0.00,,,0.00,Wunderground v.1.15,2013-11-04 23:27:00,
2013-11-04 18:33:00,28.7,19.8,30.72,SE,137,0.0,6.0,69,0.00,,,0.00,Wunderground v.1.15,2013-11-04 23:33:00,
2013-11-04 18:39:00,28.5,20.0,30.72,SE,137,0.0,6.0,70,0.00,,,0.00,Wunderground v.1.15,2013-11-04 23:39:00,
2013-11-04 18:45:00,28.5,19.6,30.72,SE,137,0.0,6.0,69,0.00,,,0.00,Wunderground v.1.15,2013-11-04 23:45:00,
2013-11-04 18:51:00,28.5,20.0,30.73,SE,137,0.0,6.0,70,0.00,,,0.00,Wunderground v.1.15,2013-11-04 23:51:00,
2013-11-04 18:57:00,28.5,20.0,30.73,SE,137,0.0,6.0,70,0.00,,,0.00,Wunderground v.1.15,2013-11-04 23:57:00,
2013-11-04 19:03:00,28.3,19.8,30.73,SE,137,0.0,6.0,70,0.00,,,0.00,Wunderground v.1.15,2013-11-05 00:03:00,
2013-11-04 19:09:00,28.2,19.3,30.73,SE,137,0.0,6.0,69,0.00,,,0.00,Wunderground v.1.15,2013-11-05 00:09:00,
2013-11-04 19:15:00,28.2,19.3,30.72,SE,137,0.0,6.0,69,0.00,,,0.00,Wunderground v.1.15,2013-11-05 00:15:00,
2013-11-04 19:21:00,28.3,19.4,30.72,SE,137,1.0,6.0,69,0.00,,,0.00,Wunderground v.1.15,2013-11-05 00:21:00,
2013-11-04 19:27:00,28.1,19.9,30.72,SE,137,0.0,6.0,71,0.00,,,0.00,Wunderground v.1.15,2013-11-05 00:27:00,
2013-11-04 19:33:00,27.7,19.5,30.72,SE,137,0.0,6.0,71,0.00,,,0.00,Wunderground v.1.15,2013-11-05 00:33:00,
2013-11-04 19:38:00,27.6,19.8,30.71,SE,137,0.0,6.0,72,0.00,,,0.00,Wunderground v.1.15,2013-11-05 00:38:00,
2013-11-04 19:44:00,27.3,19.5,30.71,SE,137,0.0,6.0,72,0.00,,,0.00,Wunderground v.1.15,2013-11-05 00:44:00,
2013-11-04 19:50:00,27.0,19.5,30.71,SE,137,0.0,6.0,73,0.00,,,0.00,Wunderground v.1.15,2013-11-05 00:50:00,
2013-11-04 19:56:00,26.7,19.2,30.71,SE,137,0.0,6.0,73,0.00,,,0.00,Wunderground v.1.15,2013-11-05 00:56:00,
2013-11-04 20:02:00,26.4,19.2,30.71,SE,137,0.0,6.0,74,0.00,,,0.00,Wunderground v.1.15,2013-11-05 01:02:00,
2013-11-04 20:08:00,26.2,19.4,30.72,SE,137,0.0,6.0,75,0.00,,,0.00,Wunderground v.1.15,2013-11-05 01:08:00,
2013-11-04 20:14:00,26.1,18.9,30.72,SE,137,0.0,6.0,74,0.00,,,0.00,Wunderground v.1.15,2013-11-05 01:14:00,
2013-11-04 20:20:00,26.3,18.8,30.72,SE,137,0.0,6.0,73,0.00,,,0.00,Wunderground v.1.15,2013-11-05 01:20:00,
2013-11-04 20:26:00,26.4,18.9,30.72,SE,137,0.0,6.0,73,0.00,,,0.00,Wunderground v.1.15,2013-11-05 01:26:00,
2013-11-04 20:32:00,26.5,19.3,30.73,SE,137,0.0,6.0,74,0.00,,,0.00,Wunderground v.1.15,2013-11-05 01:32:00,
2013-11-04 20:38:00,26.5,19.3,30.73,SE,137,0.0,6.0,74,0.00,,,0.00,Wunderground v.1.15,2013-11-05 01:38:00,
2013-11-04 20:44:00,26.6,19.7,30.73,SE,137,0.0,6.0,75,0.00,,,0.00,Wunderground v.1.15,2013-11-05 01:44:00,
2013-11-04 20:50:00,26.5,19.6,30.74,SE,137,0.0,6.0,75,0.00,,,0.00,Wunderground v.1.15,2013-11-05 01:50:00,
2013-11-04 20:55:00,26.4,19.9,30.74,SE,137,0.0,6.0,76,0.00,,,0.00,Wunderground v.1.15,2013-11-05 01:55:00,
2013-11-04 21:01:00,26.3,20.1,30.73,SE,137,0.0,6.0,77,0.00,,,0.00,Wunderground v.1.15,2013-11-05 02:01:00,
2013-11-04 21:07:00,26.2,20.0,30.74,SE,137,0.0,6.0,77,0.00,,,0.00,Wunderground v.1.15,2013-11-05 02:07:00,
2013-11-04 21:13:00,26.0,19.8,30.74,SE,137,0.0,6.0,77,0.00,,,0.00,Wunderground v.1.15,2013-11-05 02:13:00,
2013-11-04 21:19:00,25.8,19.3,30.73,SE,137,0.0,6.0,76,0.00,,,0.00,Wunderground v.1.15,2013-11-05 02:19:00,
2013-11-04 21:25:00,25.8,19.3,30.74,SE,137,0.0,6.0,76,0.00,,,0.00,Wunderground v.1.15,2013-11-05 02:25:00,
2013-11-04 21:31:00,26.0,19.5,30.74,SE,137,0.0,6.0,76,0.00,,,0.00,Wunderground v.1.15,2013-11-05 02:31:00,
2013-11-04 21:37:00,26.0,19.5,30.73,SE,137,0.0,6.0,76,0.00,,,0.00,Wunderground v.1.15,2013-11-05 02:37:00,
2013-11-04 21:43:00,26.1,19.6,30.73,SE,137,0.0,6.0,76,0.00,,,0.00,Wunderground v.1.15,2013-11-05 02:43:00,
2013-11-04 21:49:00,26.1,19.9,30.73,SE,137,0.0,6.0,77,0.00,,,0.00,Wunderground v.1.15,2013-11-05 02:49:00,
2013-11-04 21:54:00,25.9,19.7,30.73,SE,137,0.0,6.0,77,0.00,,,0.00,Wunderground v.1.15,2013-11-05 02:54:00,
2013-11-04 22:00:00,25.8,19.9,30.73,SE,137,0.0,6.0,78,0.00,,,0.00,Wunderground v.1.15,2013-11-05 03:00:00,
2013-11-04 22:06:00,25.8,19.9,30.73,SE,137,0.0,6.0,78,0.00,,,0.00,Wunderground v.1.15,2013-11-05 03:06:00,
2013-11-04 22:12:00,26.0,20.1,30.73,SE,137,0.0,6.0,78,0.00,,,0.00,Wunderground v.1.15,2013-11-05 03:12:00,
2013-11-04 22:18:00,26.0,20.1,30.73,SE,137,0.0,6.0,78,0.00,,,0.00,Wunderground v.1.15,2013-11-05 03:18:00,
2013-11-04 22:23:00,25.9,20.0,30.73,SE,137,0.0,6.0,78,0.00,,,0.00,Wunderground v.1.15,2013-11-05 03:23:00,
2013-11-04 22:29:00,25.7,20.1,30.74,SE,137,0.0,6.0,79,0.00,,,0.00,Wunderground v.1.15,2013-11-05 03:29:00,
2013-11-04 22:35:00,25.6,20.3,30.74,SE,137,0.0,6.0,80,0.00,,,0.00,Wunderground v.1.15,2013-11-05 03:35:00,
2013-11-04 22:41:00,25.7,20.4,30.74,SE,137,0.0,6.0,80,0.00,,,0.00,Wunderground v.1.15,2013-11-05 03:41:00,
2013-11-04 22:47:00,25.8,20.5,30.74,SE,137,0.0,6.0,80,0.00,,,0.00,Wunderground v.1.15,2013-11-05 03:47:00,
2013-11-04 22:53:00,25.7,20.4,30.74,SE,137,0.0,6.0,80,0.00,,,0.00,Wunderground v.1.15,2013-11-05 03:53:00,
2013-11-04 22:59:00,25.6,20.3,30.74,SE,137,0.0,6.0,80,0.00,,,0.00,Wunderground v.1.15,2013-11-05 03:59:00,
2013-11-04 23:05:00,25.8,20.5,30.73,SE,137,1.0,6.0,80,0.00,,,0.00,Wunderground v.1.15,2013-11-05 04:05:00,
2013-11-04 23:11:00,26.1,20.5,30.73,SE,137,0.0,6.0,79,0.00,,,0.00,Wunderground v.1.15,2013-11-05 04:11:00,
2013-11-04 23:17:00,26.3,20.4,30.73,SE,137,0.0,6.0,78,0.00,,,0.00,Wunderground v.1.15,2013-11-05 04:17:00,
2013-11-04 23:23:00,26.7,21.1,30.74,SE,137,0.0,6.0,79,0.00,,,0.00,Wunderground v.1.15,2013-11-05 04:23:00,
2013-11-04 23:29:00,26.8,21.2,30.73,SE,137,0.0,6.0,79,0.00,,,0.00,Wunderground v.1.15,2013-11-05 04:29:00,
2013-11-04 23:35:00,26.8,21.2,30.73,SE,137,0.0,6.0,79,0.00,,,0.00,Wunderground v.1.15,2013-11-05 04:35:00,
2013-11-04 23:40:00,26.8,20.9,30.73,SE,137,0.0,6.0,78,0.00,,,0.00,Wunderground v.1.15,2013-11-05 04:40:00,
2013-11-04 23:46:00,26.7,20.8,30.73,SE,137,0.0,6.0,78,0.00,,,0.00,Wunderground v.1.15,2013-11-05 04:46:00,
2013-11-04 23:52:00,26.7,20.8,30.73,SE,137,0.0,6.0,78,0.00,,,0.00,Wunderground v.1.15,2013-11-05 04:52:00,
2013-11-04 23:58:00,26.6,21.0,30.73,SE,137,0.0,6.0,79,0.00,,,0.00,Wunderground v.1.15,2013-11-05 04:58:00,